Lancaster, CA

2:43 AM PDT on June 23, 2017 (GMT -0700)
Gen Fox

Weather History for KWJF - March, 2013

Change the Weather History Date:

Tuesday, March 12, 2013

  Actual Average Record
Temperature  
Mean Temperature 57 °F 53 °F  
Max Temperature 80 °F 67 °F 86 °F (2007)
Min Temperature 34 °F 39 °F 20 °F (1988)
Degree Days  
Heating Degree Days 8    
Month to date heating degree days 151  
Since 1 July heating degree days 2523  
Cooling Degree Days 0    
Month to date cooling degree days 0  
Year to date cooling degree days 0  
Growing Degree Days 8 (Base 50)    
Moisture  
Dew Point 23 °F    
Average Humidity 37    
Maximum Humidity 64    
Minimum Humidity 9    
Precipitation  
Precipitation 0.00 in 0.04 in 0.06 in (2006)
Month to date precipitation 0.35 0.56  
Year to date precipitation 0.95 3.84  
Since 1 July precipitation 1.11  
Snow  
Snow 0.00 in - 0.00 in ()
Month to date snowfall 0.0  
Since 1 July snowfall 0.0  
Snow Depth 0.00 in    
Sea Level Pressure  
Sea Level Pressure 30.14 in    
Wind  
Wind Speed 4 mph (NW)    
Max Wind Speed 12 mph    
Max Gust Speed 20 mph    
Visibility 10 miles    
Events      
T = Trace of Precipitation, MM = Missing Value Source: NWS Daily Summary

Daily Weather History Graph

Daily Weather History Graph

Search for Another Location

Airport or City:

Trip Planner

Search our weather history database for the weather conditions in past years. The results will help you decide how hot, cold, wet, or windy it might be!

Date:

Astronomy

Mar. 12, 2013 Rise Set
Actual Time 7:07 AM PDT 6:58 PM PDT
Civil Twilight 6:41 AM PDT 7:23 PM PDT
Nautical Twilight 6:12 AM PDT 7:52 PM PDT
Astronomical Twilight 5:43 AM PDT 8:22 PM PDT
Moon 7:20 AM PDT (3/12) 8:13 PM PDT (3/12)
Length of Visible Light 12h 41m
Length of Day
11h 51m
New Moon, 1% of the Moon is Illuminated
Mar 12
New Moon
Mar 19
First Quarter
Mar 27
Full
Apr 2
Last Quarter
Apr 10
New

Hourly Weather History & Observations

Time (PDT) Temp. Windchill Dew Point Humidity Pressure Visibility Wind Dir Wind Speed Gust Speed Precip Events Conditions
12:56 AM 48.0 °F - 25.0 °F 41% 30.12 in 10.0 mi WSW 3.5 mph - N/A   Clear
1:56 AM 39.9 °F - 26.1 °F 58% 30.13 in 10.0 mi Calm Calm - N/A   Clear
2:56 AM 41.0 °F 37.1 °F 26.1 °F 55% 30.13 in 10.0 mi WNW 5.8 mph - N/A   Clear
3:56 AM 44.1 °F 41.5 °F 27.0 °F 51% 30.11 in 10.0 mi West 4.6 mph - N/A   Clear
4:56 AM 37.9 °F 35.5 °F 26.1 °F 62% 30.12 in 10.0 mi NW 3.5 mph - N/A   Clear
5:56 AM 36.0 °F 32.1 °F 25.0 °F 64% 30.14 in 10.0 mi WNW 4.6 mph - N/A   Clear
6:56 AM 36.0 °F 33.3 °F 24.1 °F 62% 30.15 in 10.0 mi WSW 3.5 mph - N/A   Clear
7:56 AM 37.9 °F - 25.0 °F 60% 30.19 in 10.0 mi Calm Calm - N/A   Clear
8:56 AM 46.0 °F - 27.0 °F 47% 30.21 in 10.0 mi Calm Calm - N/A   Clear
9:56 AM 55.9 °F - 26.1 °F 32% 30.20 in 10.0 mi North 3.5 mph - N/A   Clear
10:56 AM 62.1 °F - 24.1 °F 23% 30.19 in 10.0 mi Calm Calm - N/A   Clear
11:56 AM 68.0 °F - 23.0 °F 18% 30.19 in 10.0 mi Variable 3.5 mph - N/A   Clear
12:56 PM 72.0 °F - 19.9 °F 14% 30.15 in 10.0 mi Variable 3.5 mph - N/A   Clear
1:56 PM 75.9 °F - 18.0 °F 11% 30.12 in 10.0 mi ENE 8.1 mph - N/A   Clear
2:56 PM 78.1 °F - 16.0 °F 10% 30.10 in 10.0 mi ENE 8.1 mph - N/A   Clear
3:56 PM 80.1 °F - 17.1 °F 9% 30.08 in 10.0 mi Variable 5.8 mph - N/A   Clear
4:56 PM 80.1 °F - 16.0 °F 9% 30.07 in 10.0 mi NE 3.5 mph - N/A   Clear
5:56 PM 79.0 °F - 16.0 °F 9% 30.07 in 10.0 mi Calm Calm - N/A   Clear
6:56 PM 72.0 °F - 19.0 °F 13% 30.09 in 10.0 mi NNE 4.6 mph - N/A   Clear
7:56 PM 64.0 °F - 23.0 °F 21% 30.12 in 10.0 mi NNW 3.5 mph - N/A   Clear
8:56 PM 55.0 °F - 25.0 °F 31% 30.14 in 10.0 mi West 5.8 mph - N/A   Clear
9:56 PM 53.1 °F - 26.1 °F 35% 30.16 in 10.0 mi West 4.6 mph - N/A   Clear
10:56 PM 51.1 °F - 26.1 °F 38% 30.17 in 10.0 mi WNW 10.4 mph - N/A   Clear
11:56 PM 51.1 °F - 26.1 °F 38% 30.17 in 10.0 mi Calm Calm - N/A   Clear